Terminal Aerodrome Forecast
Issued by NWS

Home | Current Version | Previous Version | Graphics & Text | Print | Product List | Glossary Off
Versions: 1 2 3 4 5 6 7 8 9 10 11 12 13 14 15 16 17 18 19 20 21 22 23 24 25 26 27 28 29 30 31 32 33 34 35 36 37 38 39 40 41 42 43 44 45

000
FTUS43 KDDC 290303 AAA
TAFGCK
TAF AMD
KGCK 290303Z 2903/2924 31008KT P6SM SCT030
      TEMPO 2903/2905 P6SM TSRA SCT040CB=

USA.gov is the U.S. government's official web portal to all federal, state and local government web resources and services.